KC8YVF-1 Weather Reports


Display with metric or nautical units.
time (UTC)temp
F
wind
direction
speed
MPH
gust
MPH
rain 1hr
in
rain 24hr
in
rain mn
in
humidity
%
barometer
mb
20260904092357 68 135 0.0 0.0 0.00 0.69 0.00 94 1001.0
20260904090857 69 135 0.0 0.0 0.00 0.69 0.00 94 1001.0
20260904085356 69 135 0.0 0.0 0.00 0.69 0.00 94 1001.2
20260904083857 69 135 0.0 0.0 0.00 0.69 0.00 94 1001.3
20260904082356 69 135 0.0 0.0 0.00 0.69 0.00 94 1001.3
20260904080856 69 135 0.0 0.0 0.00 0.69 0.00 94 1001.3
20260904075357 69 113 0.0 0.0 0.00 0.69 0.00 94 1001.0
20260904073857 69 113 0.0 0.0 0.00 0.69 0.00 94 1001.6
20260904072356 69 135 0.0 0.0 0.00 0.69 0.00 94 1001.6
20260904070855 69 113 0.0 0.0 0.00 0.69 0.00 94 1001.3
20260904065356 68 113 0.0 0.0 0.00 0.69 0.00 94 1001.0
20260904063857 68 113 0.0 0.0 0.00 0.69 0.00 94 1001.7
20260904062356 68 113 0.0 0.0 0.00 0.69 0.00 94 1002.3
20260904060856 68 113 0.0 0.0 0.00 0.69 0.00 94 1002.3
20260904055356 68 113 0.0 0.0 0.00 0.69 0.00 94 1002.1
20260904053857 69 113 0.0 0.0 0.00 0.69 0.00 93 1002.3
20260904052355 69 113 0.0 0.0 0.00 0.69 0.00 93 1002.0
20260904050857 69 113 0.0 0.0 0.00 0.69 0.00 93 1002.2
20260904045357 69 113 0.0 0.0 0.00 0.69 0.00 93 1002.3
20260904043855 69 113 0.0 0.0 0.00 0.69 0.00 93 1002.3
20260904042357 69 113 0.0 0.0 0.00 0.69 0.00 93 1002.3
20260904040857 69 113 0.0 0.0 0.00 0.69 0.00 93 1002.3
20260904035357 69 113 0.0 0.0 0.00 0.69 0.69 93 1002.3
20260904033856 69 113 0.0 0.0 0.00 0.69 0.69 93 1002.0
20260904032357 70 113 0.0 0.0 0.00 0.69 0.69 93 1002.1
20260904030857 70 113 0.0 0.0 0.00 0.69 0.69 93 1002.0
20260904025357 71 113 0.0 0.0 0.00 0.69 0.69 93 1002.0
20260904023857 71 113 0.0 0.0 0.00 0.69 0.69 93 1001.9
20260904022357 71 113 0.0 0.0 0.00 0.69 0.69 93 1002.0
20260904020857 71 113 0.0 0.0 0.00 0.69 0.69 93 1001.6
20260904015357 72 113 0.0 0.0 0.00 0.69 0.69 93 1001.7
20260904013856 72 113 0.0 0.0 0.00 0.69 0.69 93 1001.6
20260904012356 72 113 0.0 0.0 0.00 0.69 0.69 93 1001.7
20260904010856 72 113 0.0 0.0 0.00 0.69 0.69 92 1002.0
20260904005357 72 135 0.0 0.0 0.00 0.69 0.69 92 1001.1
20260904003857 72 113 0.0 0.0 0.00 0.69 0.69 92 1001.0
20260904002356 72 113 0.0 0.0 0.00 0.69 0.69 92 1001.0
20260904000857 73 113 0.0 0.0 0.00 0.69 0.69 91 1001.0
20260903235356 73 135 0.0 0.0 0.00 0.69 0.69 91 1000.6
20260903233856 73 113 0.0 0.0 0.00 0.69 0.69 91 1000.6
20260903232357 74 113 0.0 0.0 0.00 0.69 0.69 91 1000.7
20260903230857 74 135 0.0 0.0 0.00 0.69 0.69 91 1000.6
20260903225357 74 113 0.0 0.0 0.00 0.69 0.69 91 1000.3
20260903223858 74 113 0.0 0.0 0.00 0.69 0.69 92 1000.3
20260903222357 74 113 0.0 0.0 0.00 0.69 0.69 92 1000.3
20260903220900 74 113 0.0 0.0 0.00 0.69 0.69 92 1000.0
20260903215357 74 113 0.0 0.0 0.00 0.69 0.69 92 1000.0
20260903213856 74 113 0.0 0.0 0.00 0.69 0.69 92 999.3
20260903212357 74 113 0.0 0.0 0.00 0.69 0.69 93 999.3
20260903210856 73 113 0.0 0.0 0.00 0.71 0.69 93 999.6
20260903205356 73 113 0.0 0.0 0.04 0.77 0.69 93 1000.3
20260903203857 72 90 0.0 0.0 0.06 0.77 0.69 94 1000.6
20260903202357 71 90 0.0 0.0 0.12 0.77 0.69 93 1001.0
20260903200856 70 45 0.0 0.0 0.12 0.77 0.69 93 1001.6
20260903195358 70 338 0.0 0.0 0.08 0.73 0.65 93 1002.2
20260903193857 70 293 0.0 0.0 0.10 0.71 0.63 92 1003.3
20260903192356 70 338 0.0 0.0 0.28 0.65 0.57 92 1003.0
20260903190856 70 113 0.0 0.0 0.45 0.65 0.57 92 1002.0
20260903185357 70 113 0.0 0.0 0.45 0.65 0.57 91 1002.0
20260903183856 70 90 0.0 0.0 0.53 0.61 0.53 91 1001.6
20260903182357 73 315 0.0 0.0 0.28 0.34 0.28 91 1003.3
20260903180856 74 0 0.0 0.0 0.12 0.20 0.12 91 1001.0
20260903175357 75 113 0.0 0.0 0.12 0.14 0.12 96 1000.1
20260903173857 76 135 0.0 0.0 0.00 0.08 0.00 89 1000.3
20260903172357 76 113 0.0 0.0 0.00 0.08 0.00 88 1000.0
20260903170857 76 113 0.0 0.0 0.00 0.08 0.00 88 1000.0
20260903165357 76 113 0.0 0.0 0.00 0.08 0.00 88 1000.1
20260903163857 76 90 0.0 0.0 0.00 0.08 0.00 88 1000.3
20260903162359 76 158 0.0 0.0 0.00 0.08 0.00 89 1000.6
20260903160856 76 135 0.0 0.0 0.00 0.08 0.00 89 1000.8
20260903155357 76 113 0.0 0.0 0.00 0.08 0.00 88 1001.0
20260903153856 76 113 0.0 0.0 0.00 0.08 0.00 89 1001.2
20260903152356 75 113 0.0 0.0 0.00 0.08 0.00 89 1001.5
20260903150857 75 68 0.0 0.0 0.00 0.08 0.00 96 1001.4
20260903145356 74 90 0.0 0.0 0.00 0.08 0.00 91 1001.3
20260903143856 73 68 0.0 0.0 0.00 0.08 0.00 91 1001.0
20260903142357 73 68 0.0 0.0 0.00 0.08 0.00 92 1001.0
20260903140857 72 68 0.0 0.0 0.00 0.08 0.00 92 1000.3
20260903135356 72 0 0.0 0.0 0.00 0.08 0.00 93 1001.3
20260903133856 72 68 0.0 0.0 0.00 0.08 0.00 93 1001.0
20260903132357 72 68 0.0 0.0 0.00 0.08 0.00 94 1001.0
20260903130858 72 68 0.0 0.0 0.00 0.08 0.00 93 1001.3
20260903125358 71 68 0.0 0.0 0.00 0.08 0.00 93 1001.0
20260903123857 70 68 0.0 0.0 0.00 0.08 0.00 93 1001.0
20260903122358 70 45 0.0 0.0 0.00 0.08 0.00 93 1001.0
20260903120857 70 45 0.0 0.0 0.00 0.08 0.00 93 1001.3
20260903115356 70 23 0.0 0.0 0.00 0.08 0.00 93 1001.0
20260903113857 70 23 0.0 0.0 0.00 0.08 0.00 93 1001.0
20260903112357 70 23 0.0 0.0 0.00 0.08 0.00 93 1001.0
20260903110858 70 23 0.0 0.0 0.00 0.08 0.00 93 1001.0
20260903105357 70 23 0.0 0.0 0.00 0.08 0.00 93 1000.6
20260903103857 70 23 0.0 0.0 0.00 0.08 0.00 93 1000.6
20260903102356 70 23 0.0 0.0 0.00 0.08 0.00 93 1000.6
20260903100857 70 23 0.0 0.0 0.00 0.08 0.00 92 1000.6
20260903095357 70 23 0.0 0.0 0.00 0.08 0.00 92 1000.6
20260903093857 71 23 0.0 0.0 0.00 0.08 0.00 92 1000.6